This is the latest recevied weather packets stored in our database for station/object N4PWG. If no packets are shown the sender has not sent any weather packets the latest 10 day(s).
| Time | Temp. | Humidity | Pressure | Rain* | Wind** | Luminosity | Snow |
|---|---|---|---|---|---|---|---|
| 1778083346 | 12.78° C | 89% | 1031.8 hPa | 0 mm | - | 439 W/m² | - |
| 1778083045 | 12.78° C | 86% | 1031.8 hPa | 0 mm | - | 310 W/m² | - |
| 1778082741 | 12.78° C | 85% | 1032.1 hPa | 0 mm | - | 337 W/m² | - |
| 1778081603 | 11.67° C | 89% | 1032.3 hPa | 0 mm | - | 260 W/m² | - |
| 1778081300 | 11.11° C | 88% | 1032.5 hPa | 0 mm | - | 206 W/m² | - |
| 1778080998 | 11.67° C | 89% | 1032.3 hPa | 0 mm | - | 196 W/m² | - |
| 1778080696 | 11.11° C | 89% | 1032.3 hPa | 0 mm | - | 154 W/m² | - |
| 1778080393 | 11.67° C | 89% | 1032.5 hPa | 0 mm | - | 156 W/m² | - |
| 1778080090 | 11.11° C | 89% | 1032.4 hPa | 0 mm | - | 187 W/m² | - |
| 1778079787 | 11.11° C | 89% | 1032.3 hPa | 0 mm | - | 137 W/m² | - |
| 1778079483 | 11.67° C | 88% | 1032 hPa | 0 mm | - | 155 W/m² | - |
| 1778079180 | 11.67° C | 89% | 1031.9 hPa | 0 mm | - | 198 W/m² | - |
| 1778078877 | 11.11° C | 89% | 1031.8 hPa | 0 mm | - | 242 W/m² | - |
| 1778078574 | 11.11° C | 90% | 1032.3 hPa | 0 mm | - | 219 W/m² | - |
| 1778078272 | 11.11° C | 89% | 1032 hPa | 0 mm | - | 220 W/m² | - |
| 1778077969 | 11.11° C | 89% | 1031.7 hPa | 0 mm | - | 189 W/m² | - |
| 1778077667 | 11.11° C | 89% | 1031.5 hPa | 0 mm | - | 160 W/m² | - |
| 1778077365 | 10.56° C | 90% | 1031.8 hPa | 0 mm | - | 209 W/m² | - |
| 1778077063 | 10.56° C | 90% | 1031.4 hPa | 0 mm | - | 146 W/m² | - |
| 1778076761 | 10.56° C | 91% | 1031.4 hPa | 0 mm | - | 132 W/m² | - |
| 1778076458 | 10.56° C | 90% | 1031.6 hPa | 0 mm | - | 131 W/m² | - |
| 1778076155 | 10° C | 92% | 1031.5 hPa | 0 mm | - | 121 W/m² | - |
| 1778075852 | 10° C | 91% | 1031.2 hPa | 0 mm | - | 103 W/m² | - |
| 1778075548 | 10° C | 91% | 1031.3 hPa | 0 mm | - | 104 W/m² | - |
| 1778075245 | 10° C | 92% | 1031.1 hPa | 0 mm | - | 103 W/m² | - |
* Rain latest hour (hover to see other rain measurements)
** Current wind speed in m/s (hover to see current wind gust speed)